Location: Crescent
(42.8242°N, 73.7329°W)
Time: 18:29:51
(UTC+00:00)

Vanguard 1 - Pass Details

Date: 24 February 2026
Orbit: 653 x 3818 km, 34.2° (Epoch: 5 March)

Event Time Altitude Azimuth Distance (km) Brightness Sun altitude
Rises 19:16:16 0° 241° (WSW) 3,918 14.1 30.3°
Reaches altitude 10° 19:18:33 10° 236° (SW) 3,222 14.1 30.0°
Maximum altitude 19:26:31 51° 163° (SSE) 2,206 12.6 29.1°
Drops below altitude 10° 19:41:03 10° 94° (E) 5,695 13.7 27.4°
Sets 19:46:38 0° 91° (E) 7,160 14.1 26.6°
